Location: Bailleul
(50.3375°N, 2.8513°E)
Time: 14:03:52
(UTC+00:00)

Terra - Pass Details

Date: 06 August 2021
Orbit: 701 x 703 km, 98.2° (Epoch: 28 September)

Event Time Altitude Azimuth Distance (km) Brightness Sun altitude
Exits shadow 19:58:37 - 106° (ESE) 2,564 4.1 -5.6°
Reaches altitude 10° 20:00:00 10° 95° (E) 2,175 3.8 -5.8°
Maximum altitude 20:02:58 17° 56° (NE) 1,760 3.7 -6.2°
Drops below altitude 10° 20:05:58 10° 17° (NNE) 2,184 4.6 -6.6°
Sets 20:08:56 0° 358° (N) 3,108 5.8 -6.9°
